| time (UTC) | temp C | wind direction | speed KPH | gust KPH | rain 1hr cm | rain 24hr cm | rain mn cm | humidity % | barometer mb |
| 20260507064535 | 3 | 212 | 1.6 | 12.9 | 0.10 | 0.53 | 0.53 | 92 | 1018.8 |
| 20260507063032 | 3 | 224 | 1.6 | 12.9 | 0.08 | 0.48 | 0.48 | 93 | 1018.7 |
| 20260507061530 | 3 | 244 | 0.0 | 4.8 | 0.08 | 0.46 | 0.46 | 93 | 1018.5 |
| 20260507060030 | 3 | 0 | 0.0 | 6.4 | 0.08 | 0.43 | 0.43 | 93 | 1018.5 |
| 20260507054536 | 3 | 215 | 1.6 | 9.7 | 0.08 | 0.43 | 0.43 | 92 | 1018.3 |
| 20260507053030 | 4 | 0 | 0.0 | 0.0 | 0.08 | 0.41 | 0.41 | 92 | 1018.1 |
| 20260507051528 | 4 | 0 | 0.0 | 6.4 | 0.13 | 0.38 | 0.38 | 91 | 1018.1 |
| 20260507050035 | 3 | 209 | 1.6 | 6.4 | 0.20 | 0.36 | 0.36 | 92 | 1018.2 |
| 20260507044536 | 3 | 142 | 1.6 | 14.5 | 0.23 | 0.36 | 0.36 | 91 | 1018.0 |
| 20260507043030 | 3 | 167 | 3.2 | 16.1 | 0.25 | 0.33 | 0.33 | 91 | 1018.1 |
| 20260507041536 | 4 | 183 | 3.2 | 25.7 | 0.18 | 0.25 | 0.25 | 90 | 1018.2 |
| 20260507040029 | 5 | 216 | 4.8 | 25.7 | 0.08 | 0.15 | 0.15 | 88 | 1018.0 |
| 20260507034528 | 5 | 232 | 4.8 | 22.5 | 0.08 | 0.13 | 0.13 | 86 | 1017.8 |
| 20260507033034 | 6 | 0 | 0.0 | 9.7 | 0.05 | 0.08 | 0.08 | 85 | 1017.3 |
| 20260507031530 | 6 | 0 | 0.0 | 0.0 | 0.05 | 0.08 | 0.08 | 84 | 1016.8 |
| 20260507030029 | 6 | 0 | 0.0 | 6.4 | 0.08 | 0.08 | 0.08 | 83 | 1016.8 |
| 20260507024527 | 6 | 0 | 0.0 | 11.3 | 0.05 | 0.05 | 0.05 | 79 | 1016.9 |
| 20260507023029 | 7 | 166 | 1.6 | 12.9 | 0.03 | 0.03 | 0.03 | 79 | 1016.7 |
| 20260507021530 | 7 | 0 | 0.0 | 17.7 | 0.03 | 0.03 | 0.03 | 80 | 1016.4 |
| 20260507020030 | 7 | 0 | 0.0 | 0.0 | 0.00 | 0.00 | 0.00 | 82 | 1016.5 |
| 20260507014540 | 6 | 0 | 0.0 | 4.8 | 0.00 | 0.00 | 0.00 | 78 | 1016.5 |
| 20260507013029 | 7 | 202 | 1.6 | 11.3 | 0.00 | 0.00 | 0.00 | 78 | 1016.6 |
| 20260507011528 | 7 | 0 | 0.0 | 16.1 | 0.00 | 0.00 | 0.00 | 79 | 1016.5 |
| 20260507010029 | 7 | 0 | 0.0 | 12.9 | 0.00 | 0.00 | 0.00 | 75 | 1016.6 |
| 20260507004538 | 7 | 0 | 0.0 | 4.8 | 0.00 | 0.00 | 0.00 | 77 | 1016.5 |
| 20260507003031 | 7 | 238 | 0.0 | 9.7 | 0.00 | 0.00 | 0.00 | 76 | 1016.4 |
| 20260507001528 | 7 | 217 | 1.6 | 9.7 | 0.00 | 0.00 | 0.00 | 76 | 1016.3 |
| 20260507000028 | 7 | 0 | 0.0 | 4.8 | 0.00 | 0.00 | 0.00 | 77 | 1016.3 |
| 20260506234535 | 7 | 0 | 0.0 | 14.5 | 0.00 | 0.00 | 0.00 | 77 | 1016.2 |
| 20260506233029 | 7 | 0 | 0.0 | 14.5 | 0.00 | 0.00 | 0.00 | 77 | 1016.1 |
| 20260506231533 | 7 | 265 | 0.0 | 16.1 | 0.00 | 0.00 | 0.00 | 77 | 1016.1 |
| 20260506230027 | 7 | 302 | 1.6 | 20.9 | 0.00 | 0.00 | 0.00 | 73 | 1016.0 |
| 20260506224530 | 7 | 263 | 3.2 | 24.1 | 0.00 | 0.00 | 0.00 | 72 | 1016.0 |
| 20260506223044 | 7 | 294 | 3.2 | 17.7 | 0.00 | 0.00 | 0.00 | 71 | 1015.7 |
| 20260506221528 | 7 | 289 | 4.8 | 25.7 | 0.00 | 0.00 | 0.00 | 71 | 1015.8 |
| 20260506220031 | 7 | 279 | 3.2 | 24.1 | 0.00 | 0.00 | 0.00 | 68 | 1015.6 |
| 20260506214528 | 9 | 0 | 0.0 | 0.0 | 0.00 | 0.00 | 0.00 | 66 | 1015.4 |
| 20260506213031 | 8 | 0 | 0.0 | 0.0 | 0.00 | 0.00 | 0.00 | 68 | 1015.2 |
| 20260506211539 | 8 | 0 | 0.0 | 0.0 | 0.00 | 0.00 | 0.00 | 70 | 1015.3 |
| 20260506210035 | 8 | 0 | 0.0 | 3.2 | 0.00 | 0.00 | 0.00 | 71 | 1015.0 |
| 20260506204531 | 7 | 0 | 0.0 | 0.0 | 0.00 | 0.00 | 0.00 | 73 | 1015.0 |
| 20260506203032 | 7 | 0 | 0.0 | 6.4 | 0.00 | 0.00 | 0.00 | 74 | 1015.0 |
| 20260506201535 | 7 | 0 | 0.0 | 11.3 | 0.00 | 0.00 | 0.00 | 74 | 1014.8 |
| 20260506200029 | 7 | 274 | 0.0 | 11.3 | 0.00 | 0.00 | 0.00 | 74 | 1014.7 |
| 20260506194531 | 7 | 0 | 0.0 | 11.3 | 0.00 | 0.00 | 0.00 | 75 | 1014.7 |
| 20260506193027 | 6 | 0 | 0.0 | 9.7 | 0.00 | 0.00 | 0.00 | 76 | 1014.7 |
| 20260506191530 | 6 | 0 | 1.6 | 12.9 | 0.00 | 0.00 | 0.00 | 75 | 1014.7 |
| 20260506190028 | 7 | 0 | 0.0 | 16.1 | 0.00 | 0.00 | 0.00 | 73 | 1014.6 |
| 20260506184531 | 7 | 0 | 0.0 | 8.0 | 0.00 | 0.00 | 0.00 | 73 | 1014.4 |
| 20260506183036 | 6 | 0 | 0.0 | 3.2 | 0.00 | 0.00 | 0.00 | 75 | 1014.5 |
| 20260506181528 | 6 | 265 | 0.0 | 3.2 | 0.00 | 0.00 | 0.00 | 76 | 1014.4 |
| 20260506180030 | 6 | 0 | 0.0 | 3.2 | 0.00 | 0.00 | 0.00 | 76 | 1014.2 |
| 20260506174531 | 6 | 0 | 0.0 | 3.2 | 0.00 | 0.00 | 0.00 | 77 | 1014.1 |
| 20260506173031 | 5 | 0 | 0.0 | 0.0 | 0.00 | 0.00 | 0.00 | 78 | 1014.3 |
| 20260506171533 | 5 | 0 | 0.0 | 0.0 | 0.00 | 0.00 | 0.00 | 78 | 1014.1 |
| 20260506170033 | 5 | 0 | 0.0 | 0.0 | 0.00 | 0.00 | 0.00 | 79 | 1014.0 |
| 20260506164528 | 5 | 0 | 0.0 | 0.0 | 0.00 | 0.00 | 0.00 | 79 | 1013.9 |
| 20260506163030 | 4 | 0 | 0.0 | 0.0 | 0.00 | 0.00 | 0.00 | 80 | 1013.8 |
| 20260506161533 | 4 | 0 | 0.0 | 0.0 | 0.00 | 0.00 | 0.00 | 81 | 1013.9 |
| 20260506160028 | 3 | 0 | 0.0 | 0.0 | 0.00 | 0.00 | 0.00 | 82 | 1013.8 |
| 20260506154534 | 3 | 0 | 0.0 | 0.0 | 0.00 | 0.00 | 0.00 | 81 | 1013.7 |
| 20260506153029 | 3 | 0 | 0.0 | 0.0 | 0.00 | 0.00 | 0.00 | 82 | 1013.7 |
| 20260506151533 | 3 | 0 | 0.0 | 0.0 | 0.00 | 0.00 | 0.00 | 81 | 1013.6 |
| 20260506150030 | 3 | 0 | 0.0 | 0.0 | 0.00 | 0.00 | 0.00 | 80 | 1013.6 |
| 20260506144536 | 3 | 0 | 0.0 | 1.6 | 0.00 | 0.00 | 0.00 | 80 | 1013.4 |
| 20260506143033 | 3 | 0 | 0.0 | 0.0 | 0.00 | 0.00 | 0.00 | 81 | 1013.4 |
| 20260506141527 | 3 | 0 | 0.0 | 0.0 | 0.00 | 0.00 | 0.00 | 80 | 1013.4 |
| 20260506140028 | 3 | 0 | 0.0 | 0.0 | 0.00 | 0.00 | 0.00 | 79 | 1013.4 |
| 20260506134528 | 3 | 0 | 0.0 | 3.2 | 0.00 | 0.00 | 0.00 | 79 | 1013.4 |
| 20260506133029 | 3 | 0 | 0.0 | 1.6 | 0.00 | 0.00 | 0.00 | 79 | 1013.3 |
| 20260506131532 | 3 | 0 | 0.0 | 0.0 | 0.00 | 0.00 | 0.00 | 78 | 1013.3 |
| 20260506130030 | 3 | 0 | 0.0 | 1.6 | 0.00 | 0.00 | 0.00 | 79 | 1013.2 |
| 20260506124530 | 3 | 0 | 0.0 | 0.0 | 0.00 | 0.03 | 0.00 | 79 | 1013.0 |
| 20260506123033 | 3 | 0 | 0.0 | 1.6 | 0.00 | 0.03 | 0.00 | 80 | 1013.1 |
| 20260506121530 | 3 | 0 | 0.0 | 1.6 | 0.00 | 0.03 | 0.00 | 80 | 1012.9 |
| 20260506120038 | 3 | 0 | 0.0 | 6.4 | 0.00 | 0.03 | 0.00 | 80 | 1012.8 |
| 20260506114532 | 3 | 0 | 0.0 | 3.2 | 0.00 | 0.03 | 0.00 | 79 | 1012.8 |
| 20260506113031 | 4 | 0 | 0.0 | 3.2 | 0.00 | 0.03 | 0.00 | 79 | 1012.7 |
| 20260506111529 | 4 | 0 | 0.0 | 3.2 | 0.00 | 0.03 | 0.00 | 78 | 1012.9 |
| 20260506110032 | 4 | 0 | 0.0 | 3.2 | 0.00 | 0.03 | 0.00 | 78 | 1012.7 |
| 20260506104527 | 4 | 0 | 0.0 | 6.4 | 0.00 | 0.03 | 0.00 | 79 | 1012.7 |
| 20260506103035 | 4 | 0 | 0.0 | 12.9 | 0.00 | 0.03 | 0.00 | 79 | 1012.3 |
| 20260506101527 | 4 | 201 | 0.0 | 16.1 | 0.00 | 0.03 | 0.00 | 79 | 1012.1 |
| 20260506100030 | 5 | 0 | 0.0 | 24.1 | 0.00 | 0.03 | 0.00 | 76 | 1012.0 |
| 20260506094533 | 5 | 218 | 1.6 | 19.3 | 0.00 | 0.03 | 0.00 | 70 | 1012.0 |
| 20260506093030 | 6 | 0 | 3.2 | 19.3 | 0.00 | 0.03 | 0.00 | 67 | 1011.9 |
| 20260506091532 | 6 | 228 | 0.0 | 9.7 | 0.00 | 0.03 | 0.00 | 66 | 1011.8 |
| 20260506090041 | 6 | 0 | 0.0 | 8.0 | 0.00 | 0.03 | 0.00 | 64 | 1011.7 |
| 20260506084530 | 6 | 0 | 0.0 | 0.0 | 0.00 | 0.03 | 0.00 | 61 | 1011.7 |
| 20260506083028 | 6 | 0 | 0.0 | 0.0 | 0.00 | 0.03 | 0.00 | 60 | 1011.5 |
| 20260506081533 | 6 | 0 | 0.0 | 3.2 | 0.00 | 0.03 | 0.00 | 62 | 1011.4 |
| 20260506073030 | 7 | 161 | 4.8 | 19.3 | 0.00 | 0.03 | 0.03 | 60 | 1010.9 |
| 20260506071530 | 7 | 0 | 3.2 | 17.7 | 0.00 | 0.03 | 0.03 | 60 | 1010.9 |